Regional Weather Roundup
Issued by NWS

Home | Current Version | Previous Version | Graphics & Text | Print | Product List | Glossary On
Versions: 1 2 3 4 5 6 7 8 9 10 11 12 13 14 15 16 17 18 19 20 21 22 23 24 25 26 27 28 29 30 31 32 33 34 35 36 37 38 39 40 41 42 43 44 45 46 47 48 49 50
000
ASUS43 KLMK 161910
RWRKY
KENTUCKY REGIONAL WEATHER ROUNDUP
NATIONAL WEATHER SERVICE LOUISVILLE KY
200 PM EST SAT DEC 16 2017

NOTE "FAIR" INDICATES FEW OR NO CLOUDS BELOW 12,000 FEET
WITH NO SIGNIFICANT WEATHER AND/OR OBSTRUCTIONS TO VISIBILITY.

KYZ001>023-026-027-061>063-070>075-162000-
WESTERN AND SOUTH CENTRAL KENTUCKY

CITY           SKY/WX    TMP DP  RH WIND       PRES   REMARKS
PADUCAH        SUNNY     52  28  39 SW14G22   30.11F
HENDERSON      SUNNY     51  31  46 SW20      30.09F
OWENSBORO      SUNNY     52  31  44 SW17G23   30.10F
HOPKINSVILLE   SUNNY     53  28  38 SW17      30.14F
BOWLING GREEN  SUNNY     52  31  44 SW22G31   30.17F
GLASGOW        SUNNY     51  31  45 SW14      30.16F
$$

KYZ024-025-028>034-038-045-046-053-162000-
NORTH CENTRAL KENTUCKY

CITY           SKY/WX    TMP DP  RH WIND       PRES   REMARKS
LOUISVILLE/SDF MOSUNNY   51  28  41 SW18      30.10F
LOUISVILLE/LOU SUNNY     51  30  44 SW13G23   30.11F
FORT KNOX      SUNNY     51  28  41 SW12G22   30.09F
$$

KYZ035>037-039>044-047>052-055>060-089>105-162000-
NORTHEAST KENTUCKY

CITY           SKY/WX    TMP DP  RH WIND       PRES   REMARKS
LEXINGTON      SUNNY     49  29  46 SW17G30   30.11F
COVINGTON      SUNNY     49  29  46 SW14G24   30.05F
FRANKFORT      SUNNY     50  28  42 SW14G29   30.09F
$$

KYZ054-064>069-076>088-106>120-162000-
SOUTHEAST KENTUCKY

CITY           SKY/WX    TMP DP  RH WIND       PRES   REMARKS
JACKSON        SUNNY     50  27  40 VRB5      30.14F
LONDON         SUNNY     48  27  44 SW13G21   30.17F
SOMERSET       SUNNY     46  28  49 W13G18    30.18F
MIDDLESBORO    SUNNY     46  28  48 S8        30.20F
MONTICELLO     CLEAR     50  31  48 SW12G22   30.19F
$$





USA.gov is the U.S. government's official web portal to all federal, state and local government web resources and services.